sat.trackr.live / text

‹ back to catalog

JILIN-1 07

NORAD 43159 · 2018-008E

PAYLOAD ACTIVE UNKNOWN

§ Identity

Operator
Country
PRC
Launch date
2018-01-19
Launch site
JSC
Launch vehicle
Mass (kg)
RCS (m²)

External: N2YO · Heavens-Above · Gunter

§ Orbital elements

Epoch: 2026-09-20T04:15:32.449824Z

Period
93.75 min
Inclination
97.1762°
Eccentricity
0.0010028
Mean motion
15.36071605 rev/d
Perigee alt
450.9 km
Apogee alt
464.6 km
Semi-major
6,835.9 km
B*
1.6620e-4
RAAN
280.6561°
Arg perigee
79.4934°
Mean anomaly
280.7439°
Rev number
47,957

§ Raw data

JILIN-1 071 43159U 18008E   26263.17745891  .00005769  00000+0  16620-3 0  99942 43159  97.1762 280.6561 0010028  79.4934 280.7439 15.36071605479570

JSON: /api/v1/satellites/43159 · /tle

For live sub-satellite position, see the globe view (requires WebGL).

§ Visibility from observer

Set your observer location to see the next 7 days of passes ≥ 10°. The values pass through the URL so the page stays shareable.

No JS? Fill the form by hand. The geolocation button needs JavaScript.

§ Radio — SatNOGS DB

ModeDescriptionDownlinkUplink
BPSK Mode S - Telemetry (128000) 2.215 GHz

1 transmitter · refreshed weekly from db.satnogs.org